Location: Remedello Sotto
(45.2500°N, 10.3667°E)
Time: 20:51:55
(UTC+00:00)

CSL-04 Debris - Pass Details

Date: 03 February 2023
Orbit: 826 x 846 km, 98.8° (Epoch: 22 March)

Event Time Altitude Azimuth Distance (km) Brightness Sun altitude
Exits shadow 18:40:06 56° 104° (ESE) 989 4.2 -23.4°
Maximum altitude 18:40:47 61° 71° (ENE) 945 4.1 -23.5°
Drops below altitude 10° 18:46:06 10° 352° (N) 2,443 6.7 -24.5°
Sets 18:48:29 0° 349° (N) 3,379 7.5 -24.9°
